Content
SEND FEEDBACK

Daily
Averages
Monthly
Summary
United States of America

RAPID CITY, SOUTH DAKOTA


Home > North America > United States > South Dakota
Elevation: 3162 feet     Latitude: 44 03N     Longitude: 103 04W

WEATHER
 
SELECT A DAY
Number of Records: 200,436;   Date Range: 1/1/95 - 8/30/14
 
SHARE

PRINT THIS DATA

[ ← Previous Day ]
WEATHER ALMANAC - JANUARY 20, 2013
[ Next Day → ]
[ °C ]   °F
Weather ElementAverageHighLow
Temperature17.1 °F26.1 °F (12:52 pm)12.2 °F (10:05 pm)
Dewpoint10.4 °F15.8 °F (10:13 am)5 °F (8:52 pm)
Humidity75.8 %88 % (2:52 am)58 % (12:52 pm)
Barometer30.37 in30.51 in (9:52 am)30.08 in (4:11 am)
Wind Speed14 mph26.5 mph (1:52 pm)
Wind Gust34.5 mph (12:52 pm)
Weather ElementAverage
Visibility9.9 mi
Wind DirectionSW (228.8 °)

Weather ElementTotal
Precipitation---
Heating Degree Days45.9 (Base 65)
Averaged from 34 records on January 20, 2013
WEATHER CONDITIONS BREAKOUT
WIND DIRECTION BREAKOUT
WEATHER BY HOUR - JANUARY 20, 2013
[ °C ]   °F
Local TimeTemperatureDewpointHumidityBarometerVisibilityWind DirectionWind SpeedGust SpeedPrecipitationEventsConditions
1:52 AM19.9 °F15.1 °F81 %30.14 in10.0 miSE (130°)10.4 mphClear
2:52 AM18.0 °F15.1 °F88 %30.14 in10.0 miESE (120°)5.8 mphClear
3:52 AM17.1 °F14.0 °F88 %30.18 in10.0 miNorth (10°)12.7 mphClear
4:11 AM15.8 °F12.2 °F86 %30.08 in10.0 miNNE (20°)15.0 mphPartly Cloudy
4:26 AM15.8 °F12.2 °F86 %30.11 in10.0 miNNE (20°)17.3 mphMostly Cloudy
4:52 AM14.0 °F10.9 °F88 %30.28 in10.0 miNorth (10°)6.9 mph19.6 mphOvercast
5:52 AM14.0 °F10.0 °F84 %30.38 in10.0 miNorth (10°)15.0 mph21.9 mphOvercast
6:52 AM14.0 °F10.9 °F88 %30.43 in10.0 miNorth (10°)13.8 mphOvercast
7:06 AM15.8 °F10.4 °F79 %30.29 in10.0 miNorth (360°)10.4 mphOvercast
7:36 AM15.8 °F10.4 °F79 %30.30 in10.0 miNorth (360°)10.4 mphOvercast
7:52 AM15.1 °F10.9 °F84 %30.46 in10.0 miNNW (340°)8.1 mphOvercast
8:52 AM16.0 °F10.9 °F81 %30.50 in10.0 miNorth (10°)5.8 mphOvercast
9:18 AM17.6 °F12.2 °F79 %30.35 in10.0 miNNW (330°)4.6 mphOvercast
9:38 AM19.4 °F14.0 °F80 %30.36 in10.0 miNNW (340°)6.9 mphOvercast
9:52 AM19.9 °F14.0 °F78 %30.51 in10.0 miNorth (350°)9.2 mphOvercast
10:13 AM21.2 °F15.8 °F80 %30.36 in10.0 miNorth (10°)8.1 mphOvercast
10:52 AM24.1 °F15.1 °F69 %30.51 in10.0 miNNE (20°)12.7 mph0.00 inOvercast
11:52 AM24.1 °F12.9 °F62 %30.46 in10.0 miNorth (360°)23.0 mph29.9 mphOvercast
12:52 PM26.1 °F12.9 °F58 %30.42 in10.0 miNorth (360°)25.3 mph34.5 mphOvercast
1:52 PM24.1 °F12.0 °F60 %30.42 in10.0 miNorth (360°)26.5 mph34.5 mphOvercast
2:52 PM23.0 °F12.0 °F63 %30.44 in10.0 miNorth (360°)25.3 mph34.5 mphOvercast
3:52 PM21.0 °F10.0 °F63 %30.45 in10.0 miNNW (340°)21.9 mph27.6 mphScattered Clouds
4:52 PM18.0 °F10.0 °F71 %30.47 in10.0 miNorth (350°)15.0 mphMostly Cloudy
5:17 PM17.6 °F8.6 °F68 %30.30 in10.0 miNNE (20°)15.0 mphOvercast
5:52 PM16.0 °F8.1 °F71 %30.48 in10.0 miNorth (10°)19.6 mph26.5 mphOvercast
6:52 PM15.1 °F7.0 °F70 %30.50 in10.0 miNorth (360°)11.5 mphOvercast
7:52 PM14.0 °F6.1 °F71 %30.51 in9.0 miNorth (360°)12.7 mph19.6 mph0.00 inSnowLight Snow
8:52 PM12.9 °F5.0 °F71 %30.50 in9.0 miNorth (360°)19.6 mph25.3 mph0.00 inSnowLight Snow
9:52 PM12.9 °F5.0 °F71 %30.48 in10.0 miNorth (350°)20.7 mph0.00 inOvercast
10:05 PM12.2 °F5.0 °F73 %30.31 in10.0 miNorth (350°)18.4 mph26.5 mphOvercast
10:43 PM12.2 °F6.8 °F79 %30.32 in10.0 miNorth (350°)11.5 mph0.00 inSnowLight Snow
10:52 PM12.9 °F6.1 °F74 %30.47 in9.0 miNorth (350°)11.5 mph0.00 inSnowLight Snow
11:35 PM12.2 °F6.8 °F79 %30.31 in10.0 miNorth (350°)12.7 mph0.00 inOvercast
11:52 PM12.9 °F6.1 °F74 %30.46 in10.0 miNNW (340°)11.5 mph0.00 inOvercast
Hourly data recorded from KRAP, located miles away from Rapid City, South Dakota







STORIES FROM OUR PARTNERS